Theta_e
306 306 306 305 304 303 301 300 298 297 295 294 293 293 293 292 292 291 291 292 292 292 292 291 291 290 290 289 289 289 289 288 288 288 288 287 287 287 286 286 286 285 285 285 285 285 285 284 284 284 284 283 283 282 281 280 279 279 278 278 278 278 279 280 280 280 280 280 280 282 282 280 280 280 279 279 280 280 280 281 281 281 281 281 282
307 307 305 304 304 303 301 299 298 296 295 294 293 293 292 292 291 291 291 291 291 291 291 291 290 290 290 289 289 289 288 288 288 287 287 287 286 286 286 285 285 285 285 285 285 284 284 284 284 284 284 283 283 281 280 279 278 278 277 276 276 277 277 278 279 279 279 279 279 280 280 278 278 279 278 278 278 279 279 279 280 280 280 280 280
307 306 305 304 304 302 300 299 298 296 295 294 293 293 292 291 291 291 291 291 291 291 291 290 290 289 289 289 289 288 288 288 287 287 287 286 286 286 285 285 285 285 284 284 284 284 284 284 284 284 284 283 282 281 280 279 278 277 276 275 274 275 275 275 275 276 276 277 277 277 278 277 277 278 277 277 278 278 278 278 278 279 279 279 280
307 305 304 303 302 301 300 298 297 296 295 294 293 293 292 291 291 291 290 290 291 291 290 290 289 289 289 288 288 288 288 287 287 287 286 286 286 285 285 285 284 284 284 284 284 283 283 284 284 284 283 282 282 281 280 278 277 275 274 274 273 273 273 273 273 273 274 275 275 276 276 276 276 276 276 277 277 278 278 278 278 278 279 279 280
306 305 304 302 301 300 299 298 297 296 295 294 293 292 292 291 290 290 290 290 290 290 290 289 289 289 288 288 288 287 287 287 286 286 286 285 285 285 284 284 284 284 284 283 283 283 283 284 284 283 282 281 281 281 279 277 276 274 274 273 273 273 273 273 272 273 273 274 274 275 275 275 275 275 276 277 277 277 277 277 277 278 278 279 280
305 303 302 301 300 299 298 297 297 296 295 294 293 292 291 291 290 290 290 290 290 289 289 289 289 288 288 287 287 287 287 286 286 286 285 285 285 284 284 284 284 284 283 283 283 283 283 283 283 282 281 280 279 279 277 276 275 274 274 274 273 273 273 273 273 273 273 273 273 274 274 274 274 275 275 276 277 277 277 277 277 278 278 279 281
303 301 300 299 299 299 298 297 296 295 294 293 292 291 291 290 289 289 289 289 289 289 289 289 288 288 287 287 287 286 286 286 285 285 285 284 284 284 283 283 283 283 283 283 282 282 282 282 282 281 280 279 278 277 276 275 274 274 274 274 274 274 274 273 274 273 273 273 273 273 274 274 274 275 275 276 276 277 277 277 278 278 279 280 281
301 300 299 298 298 298 297 296 294 293 292 291 291 291 290 290 289 289 289 289 289 289 288 288 288 287 287 287 286 286 285 285 285 285 284 284 284 283 283 283 283 282 282 282 282 282 282 282 281 280 279 277 276 275 275 274 274 274 275 275 275 275 275 275 274 274 274 274 273 274 274 274 275 275 275 276 276 276 277 277 278 278 278 279 280
300 299 298 298 298 297 296 294 293 292 291 290 290 290 290 289 289 289 289 289 289 288 288 288 287 287 286 286 286 285 285 284 284 284 284 283 283 283 283 283 282 282 282 281 281 281 281 281 280 278 276 275 275 274 275 275 275 275 275 275 275 275 276 276 275 275 274 274 274 274 274 275 275 275 275 276 276 276 277 277 277 277 278 278 279
301 299 298 298 296 295 294 293 292 291 290 289 290 290 289 289 288 289 289 289 288 288 288 287 287 286 286 286 285 285 284 284 283 283 283 283 283 283 282 282 281 281 281 281 280 280 280 280 278 276 274 274 274 275 275 275 275 275 275 275 275 276 276 276 276 276 275 275 275 275 275 275 275 275 276 276 276 277 277 277 277 278 278 279 280
300 299 298 297 295 294 293 292 291 290 289 289 290 290 289 288 288 288 289 288 288 288 288 287 286 286 286 285 285 284 283 283 283 283 282 282 282 282 281 281 281 280 280 280 280 280 279 278 276 275 274 274 274 274 275 275 275 275 276 276 276 276 276 276 276 276 276 276 276 276 276 276 276 276 276 277 277 277 277 278 278 278 279 280 280
299 298 297 296 295 294 293 291 290 289 289 289 289 289 289 288 288 288 288 288 288 288 287 287 286 286 285 285 284 283 283 282 282 282 282 281 281 281 280 280 280 280 280 279 279 278 278 276 275 274 274 274 274 274 275 275 275 275 275 276 276 276 276 276 276 276 276 276 276 277 277 277 277 277 278 277 277 278 278 278 279 279 280 280 280
299 298 297 296 295 294 292 291 290 289 289 289 289 289 289 288 288 288 288 288 287 287 287 286 286 285 285 284 284 283 282 282 282 282 281 281 281 280 280 279 279 279 279 278 278 277 277 275 274 274 274 274 274 275 275 275 275 276 276 276 276 276 276 276 276 276 276 276 276 276 276 277 277 278 278 278 278 279 279 279 279 279 280 280 280
299 297 296 295 294 293 292 291 290 289 289 289 289 289 288 288 288 288 288 287 287 287 286 286 285 285 284 284 283 283 282 282 282 281 281 281 280 279 279 279 279 279 279 278 277 277 276 275 274 274 275 275 275 275 275 276 276 276 276 277 277 277 276 276 276 276 276 276 275 275 275 275 276 276 277 278 278 278 278 279 279 279 279 279 279
298 297 296 295 294 293 292 290 289 289 289 289 289 288 288 288 288 287 287 287 287 286 286 285 285 285 284 284 283 282 282 282 282 281 281 280 280 279 279 279 279 279 278 278 278 277 276 275 274 275 275 275 275 276 276 276 276 277 277 277 276 276 276 276 276 276 276 276 275 276 276 275 276 276 276 276 277 277 278 278 278 279 279 279 279
298 297 296 295 294 293 292 290 290 289 289 289 289 288 287 287 287 287 287 287 286 286 286 286 285 285 284 284 283 282 282 282 281 281 280 280 279 279 279 279 279 279 278 278 277 276 275 275 275 275 275 275 276 276 276 277 277 277 276 276 276 276 276 276 276 276 276 276 276 276 276 276 277 277 277 277 277 278 278 279 279 279 279 279 279
300 299 297 296 295 293 292 291 290 289 288 289 288 288 287 287 287 287 287 287 286 286 286 286 285 285 284 284 283 282 282 281 281 281 280 279 279 278 279 279 279 278 278 277 276 276 275 275 275 275 275 276 276 276 276 276 276 276 276 276 276 276 276 276 276 276 276 276 276 276 277 277 277 278 278 278 279 279 279 280 280 280 280 280 280
302 300 299 297 296 294 292 291 290 289 289 289 288 287 287 287 287 287 287 286 286 286 286 286 285 285 284 284 283 282 281 281 281 280 279 279 278 278 279 279 278 278 277 276 276 275 275 275 275 275 275 275 275 275 276 276 276 276 276 276 275 275 275 275 275 275 275 276 276 276 277 277 277 278 278 278 279 279 280 280 280 280 281 281 281
304 302 300 298 296 294 292 291 290 289 289 289 288 287 287 287 287 287 286 286 286 286 286 286 285 285 284 283 283 282 281 281 280 279 279 278 278 278 278 278 277 276 276 275 275 275 275 274 275 275 275 274 274 275 276 276 276 276 275 275 275 275 275 275 275 275 275 276 276 276 277 277 277 277 277 277 278 279 279 280 280 280 281 281 281
304 302 299 297 295 293 292 290 289 289 289 288 287 287 287 287 287 287 286 286 286 286 286 285 285 284 283 282 282 281 281 280 279 279 279 279 278 278 278 277 276 275 275 275 275 274 274 274 275 275 274 274 274 275 276 276 276 275 275 274 274 274 274 275 275 276 276 276 277 277 277 277 277 277 277 277 277 278 278 279 279 279 280 280 281
303 301 298 296 294 292 291 290 289 289 288 288 287 287 287 287 287 287 286 286 287 286 286 285 284 283 283 282 281 281 280 279 279 279 279 278 278 278 278 276 275 275 275 274 274 274 274 274 275 274 274 274 274 275 275 275 275 274 274 273 273 274 275 275 275 275 275 275 276 276 277 278 278 278 278 278 278 278 278 278 278 279 279 280 281
302 300 298 295 293 292 290 289 289 288 288 287 287 287 287 287 287 287 287 287 287 286 285 285 284 283 282 281 280 280 279 279 278 278 278 278 278 278 277 275 274 275 274 274 274 274 274 274 274 274 273 273 274 274 274 274 274 273 273 273 273 274 274 274 274 274 274 274 275 276 278 278 279 278 278 278 278 278 278 278 279 279 279 280 281
301 299 297 295 293 291 290 289 288 287 287 287 287 287 287 286 286 287 287 287 287 286 285 284 283 282 281 280 280 279 279 278 278 278 278 278 279 278 275 274 274 274 274 274 274 274 274 273 273 273 273 273 274 273 273 273 273 272 272 272 273 273 273 273 273 273 273 274 275 276 277 278 279 279 279 279 279 279 279 279 280 280 280 281 281
299 298 296 294 293 291 289 288 287 287 286 287 287 287 287 287 287 287 287 287 286 285 284 283 282 281 280 279 279 279 278 278 278 278 278 278 278 276 274 274 274 274 274 274 274 274 273 272 272 273 273 273 274 274 274 274 273 272 271 271 271 271 271 271 271 271 272 272 273 274 276 277 278 279 279 280 280 280 280 280 281 281 281 282 282
299 297 295 294 292 290 289 288 287 286 286 286 287 286 286 287 287 287 287 286 285 284 283 282 281 280 279 279 278 278 278 278 278 278 278 278 276 275 274 274 274 274 274 274 274 273 272 272 273 273 273 273 274 274 274 273 272 271 271 271 270 270 270 270 270 270 271 272 272 273 274 275 276 277 278 279 279 280 280 281 281 282 282 282 283
298 296 294 293 291 290 288 287 286 286 286 286 286 286 287 287 288 287 286 286 285 283 282 281 280 280 279 278 278 278 278 278 278 278 277 276 275 274 274 274 274 274 274 273 273 272 272 273 273 273 273 273 273 273 273 272 272 271 271 270 270 269 269 270 270 270 271 271 271 272 273 273 274 275 276 277 278 279 280 280 282 283 283 283 284
297 295 294 292 290 288 287 286 286 286 286 286 286 286 287 287 287 287 286 285 283 282 281 281 280 280 279 278 278 278 278 278 278 277 276 274 273 273 273 273 273 273 273 272 271 272 273 273 273 273 273 273 273 273 273 272 272 272 270 269 269 269 269 269 270 270 270 271 271 271 272 272 273 273 275 276 277 278 280 281 282 284 284 284 285
296 294 293 291 289 287 286 286 286 286 285 285 286 286 286 286 286 286 286 284 283 282 281 281 280 279 279 278 278 278 278 277 277 276 274 272 272 272 272 272 272 273 272 271 271 272 273 273 273 273 273 273 273 272 272 272 272 271 270 269 269 269 269 269 270 270 270 270 271 271 271 272 272 272 273 274 275 276 278 280 282 284 285 285 286
294 292 291 290 288 287 285 285 285 285 285 285 285 286 286 286 286 285 283 281 281 280 280 280 279 279 278 278 278 278 277 276 275 274 273 272 272 272 272 272 272 272 272 272 272 272 273 273 273 273 273 272 272 272 271 271 271 271 270 270 269 269 269 269 270 270 270 270 271 271 271 272 272 272 272 273 273 274 276 278 280 283 284 285 286
292 290 289 289 287 286 285 285 285 285 285 285 285 285 284 283 283 282 281 280 279 279 279 278 278 278 278 278 277 277 276 275 274 273 273 273 273 273 273 273 272 272 272 272 272 273 273 273 272 272 272 272 271 271 271 270 270 270 269 269 269 269 269 269 270 270 270 270 271 271 271 272 272 272 272 272 272 273 274 276 278 281 282 284 286
292 290 289 288 287 286 285 284 284 285 285 286 286 286 283 281 279 278 278 278 278 277 277 277 277 277 277 277 276 275 275 274 273 273 273 273 273 273 273 272 272 272 272 272 272 273 273 272 272 271 271 271 270 270 270 270 269 269 269 269 269 269 269 269 270 270 270 270 271 271 271 271 271 271 271 271 271 272 273 274 276 278 280 282 285
292 291 289 287 286 285 284 284 284 285 285 286 286 285 284 281 279 277 276 276 276 276 276 276 277 277 276 276 275 274 274 273 273 273 273 273 273 273 272 272 272 272 272 273 273 272 272 272 271 271 271 271 270 270 270 269 269 269 268 268 269 269 269 270 270 270 270 271 271 271 271 271 271 271 271 271 271 271 271 272 274 276 278 280 283
292 291 289 287 284 284 284 284 284 285 286 285 284 283 283 282 281 278 276 275 274 275 276 276 276 275 275 274 274 273 273 273 273 273 273 273 273 273 272 272 272 272 273 273 273 272 271 271 270 270 270 270 270 270 270 270 269 269 269 268 268 269 269 270 270 270 270 271 271 271 271 271 271 270 270 270 270 270 270 271 272 273 275 277 280
290 290 289 287 285 283 283 284 285 285 286 285 284 283 282 282 281 279 278 276 274 274 275 275 275 274 273 273 272 272 273 273 273 273 273 273 273 272 272 272 272 273 273 273 272 272 271 270 270 270 270 270 270 270 270 270 269 269 269 269 269 269 269 269 270 270 270 271 271 271 271 271 270 270 270 270 270 270 270 270 271 272 273 275 278
288 287 287 286 285 284 283 284 285 285 285 285 284 283 282 280 279 279 279 278 277 276 276 275 274 274 273 272 272 272 272 272 272 272 273 273 273 272 272 272 273 273 273 273 272 271 270 270 269 269 269 269 269 270 270 270 269 269 269 269 269 269 269 269 270 270 270 271 271 271 271 270 270 270 269 269 269 269 269 270 270 271 272 273 276
285 285 284 284 283 283 284 284 284 284 284 284 283 283 282 280 278 278 278 278 278 277 276 275 274 273 273 272 272 272 272 272 272 272 272 272 272 272 273 273 274 273 273 272 272 271 270 269 269 269 269 269 269 269 270 270 269 269 269 269 269 269 269 269 270 270 270 271 271 271 270 270 270 269 269 269 269 269 269 269 270 270 271 272 274
284 284 284 283 282 282 283 283 283 283 284 283 282 281 280 278 277 277 276 276 276 276 275 274 274 273 273 272 272 272 272 272 272 272 272 272 272 272 273 273 273 273 272 272 271 271 270 269 269 269 269 269 269 269 270 270 269 269 269 269 269 269 269 270 270 270 270 271 270 270 270 270 269 269 269 269 269 269 269 269 269 270 271 272 274
283 283 282 282 281 282 282 282 282 282 282 281 280 279 278 277 276 276 276 276 275 275 274 274 273 273 272 272 272 272 272 272 272 272 272 272 272 272 273 273 272 272 272 272 271 271 270 270 269 269 269 269 269 269 269 270 270 269 269 269 269 269 270 270 270 270 270 270 270 270 270 270 269 269 268 268 269 268 269 269 269 270 271 272 273
280 280 280 280 281 281 282 282 281 280 279 278 278 277 276 276 276 276 275 275 275 274 274 273 273 272 272 272 272 272 272 272 272 271 272 272 273 273 273 272 272 272 272 272 271 271 270 270 269 269 269 269 269 269 269 270 270 269 269 269 269 269 270 270 270 270 270 270 270 270 270 269 269 269 268 268 268 268 269 269 269 270 270 271 273
279 278 278 279 280 281 282 282 281 279 278 277 276 276 276 276 276 275 275 275 274 273 273 273 272 272 272 272 272 272 272 271 271 272 272 272 272 272 272 272 272 272 272 271 271 271 270 270 269 269 269 268 268 269 269 270 270 269 269 269 269 269 269 270 270 270 270 270 270 270 270 269 269 268 268 268 268 268 268 269 269 270 271 272 274
277 277 277 278 279 280 281 281 280 279 278 277 276 276 275 276 275 275 274 274 273 272 272 272 272 272 272 272 272 272 272 272 272 272 272 272 272 272 272 272 272 272 271 271 271 271 271 270 270 269 269 268 268 269 269 270 270 269 269 269 269 269 269 270 270 270 270 270 270 269 269 269 269 268 268 268 268 268 268 269 270 270 271 273 276
276 275 276 277 278 280 280 279 279 278 277 276 276 275 275 275 274 274 273 273 272 272 272 272 272 272 272 272 272 272 272 272 272 272 272 272 272 272 272 272 272 272 271 271 271 271 271 270 270 269 269 268 268 268 269 269 270 269 269 268 268 269 269 270 270 270 270 270 269 269 269 269 269 268 268 268 268 268 268 269 270 271 272 274 276
275 275 277 278 279 280 281 280 279 278 277 276 275 275 274 274 274 273 273 273 273 273 273 272 272 272 272 272 272 272 272 272 272 272 272 272 272 272 272 272 272 271 271 271 271 271 271 270 270 269 269 269 268 268 268 269 269 269 269 268 268 269 269 270 270 271 270 270 269 269 269 269 269 268 268 268 268 268 268 269 270 271 272 274 276
275 276 278 279 280 280 280 280 279 277 276 275 274 274 274 274 273 273 273 273 273 273 272 272 272 272 272 272 272 272 272 272 271 271 272 272 272 272 272 272 272 271 271 271 271 271 270 270 270 270 269 269 269 268 268 269 269 269 269 268 268 269 269 270 270 271 270 269 269 269 269 269 269 268 268 268 268 268 269 269 270 272 273 275 277
275 278 280 280 280 280 280 279 277 276 275 274 274 273 273 273 273 273 273 273 273 272 272 272 272 272 272 272 271 271 271 271 271 271 271 271 272 272 272 272 271 271 271 271 271 271 270 270 270 270 270 269 269 269 269 269 269 269 269 269 268 269 269 270 270 271 270 269 269 269 269 269 269 268 268 268 268 268 268 269 271 272 274 276 279
277 280 281 280 280 279 278 277 276 275 274 274 274 273 273 273 273 273 272 272 272 272 272 271 271 271 271 271 271 270 270 270 270 271 271 271 272 272 272 271 271 271 271 271 271 270 270 270 270 269 269 269 269 269 269 269 269 269 269 269 269 269 269 270 270 271 270 269 269 269 269 269 269 269 268 268 268 268 269 270 271 273 274 277 280
280 281 281 281 280 279 277 276 275 274 274 273 273 273 273 272 272 272 272 272 271 271 271 271 271 270 270 270 270 270 270 270 270 270 271 271 271 271 271 271 271 271 271 271 270 270 270 270 269 269 269 269 269 269 269 269 269 269 269 269 269 269 269 270 271 270 270 269 269 269 269 269 269 269 268 268 268 268 269 269 271 273 275 277 280
281 281 280 281 280 279 276 275 274 273 273 273 273 272 272 272 271 271 271 271 271 270 270 270 270 270 269 269 269 269 269 270 270 270 270 271 271 271 271 271 271 271 271 270 270 270 270 269 269 269 269 269 269 269 269 269 269 269 269 269 269 268 269 270 270 270 270 269 269 269 269 269 269 269 268 268 268 268 268 269 270 273 275 278 281
281 281 281 280 279 277 276 274 274 273 273 272 272 272 271 271 271 271 271 270 270 269 269 269 269 269 269 269 269 269 269 270 270 270 270 271 271 271 271 271 271 271 271 270 270 270 270 269 269 269 269 269 269 269 269 269 269 269 269 269 268 268 269 270 270 270 270 269 269 269 269 269 269 269 268 268 268 268 268 269 270 272 275 278 281
279 280 280 279 277 275 274 274 273 273 272 272 271 271 271 271 270 270 270 269 269 269 269 269 269 269 269 269 269 269 269 270 270 270 270 271 271 271 271 271 270 271 271 270 270 270 270 269 269 269 269 269 269 269 269 269 269 269 269 269 268 268 269 270 270 270 270 269 269 269 269 270 269 269 269 268 268 268 268 269 270 271 274 277 281
277 277 278 277 275 274 273 273 272 272 271 271 271 271 270 270 270 270 269 269 269 269 269 269 269 268 269 269 269 269 269 269 270 270 270 271 271 270 270 270 271 271 271 270 270 270 270 269 270 270 270 269 269 269 269 268 269 269 270 268 267 268 269 269 270 270 270 269 269 269 269 270 270 269 269 268 268 268 268 269 270 271 273 276 280
Wind_Speed
42 42 42 43 44 45 47 48 48 49 50 50 50 49 47 46 44 42 39 37 35 33 30 28 26 25 23 23 24 25 25 25 25 25 24 24 24 24 23 24 25 26 27 28 28 29 31 32 32 33 32 34 35 35 35 35 35 37 36 37 38 37 38 39 42 51 59 60 63 69 67 63 66 63 54 53 53 49 48 50 50 52 54 55 57
41 42 44 44 44 46 48 49 49 50 50 50 50 49 48 46 44 42 40 37 35 32 30 28 26 25 24 24 25 24 24 24 24 24 24 23 23 23 23 24 25 27 27 29 29 29 31 32 33 33 32 34 34 34 35 36 35 37 37 35 35 35 36 40 43 47 56 61 63 70 70 61 62 63 53 49 52 50 50 51 50 52 54 55 58
41 43 45 45 45 47 49 50 50 50 51 51 50 49 48 46 44 43 40 37 35 32 29 28 26 25 25 25 24 24 24 24 23 23 23 23 22 22 23 25 26 27 28 30 30 30 31 32 32 33 32 33 34 33 34 35 34 35 35 34 34 37 39 40 43 46 52 58 60 63 62 52 51 57 53 49 49 47 48 52 53 55 56 56 57
43 44 46 46 46 48 50 51 51 51 51 51 50 49 48 46 45 42 40 37 34 31 29 28 27 26 26 25 24 24 24 23 23 22 22 22 22 23 24 25 26 28 29 30 30 31 31 32 33 33 33 34 34 35 34 34 34 34 35 36 35 38 40 36 35 37 41 47 49 48 48 46 47 51 49 47 48 48 49 54 54 55 55 54 52
44 45 46 47 48 49 51 52 52 52 52 51 50 49 47 46 44 41 39 36 33 31 29 28 27 26 25 24 23 24 23 22 22 21 21 21 22 23 24 25 27 28 29 30 30 30 31 33 33 33 34 35 35 35 34 33 34 34 35 37 36 38 39 33 32 34 36 41 45 44 44 45 44 44 43 44 48 48 49 51 52 51 50 49 47
45 46 47 48 49 49 51 53 53 52 52 51 50 48 47 45 43 40 38 35 32 30 28 27 26 26 24 23 23 24 22 21 21 20 20 21 22 23 24 26 27 29 30 30 30 30 31 33 34 34 34 34 34 34 33 32 33 34 35 37 37 38 39 37 37 38 37 39 42 43 44 43 42 42 41 40 43 46 47 49 51 48 44 43 44
46 47 48 48 49 49 51 53 53 52 52 51 49 47 46 44 42 39 37 34 32 30 28 27 26 25 24 24 24 23 21 20 20 19 20 21 22 24 25 27 28 29 30 30 30 30 32 33 34 35 34 33 33 33 32 33 35 37 38 39 40 42 42 43 43 42 41 42 42 43 44 41 40 41 40 38 40 44 43 43 46 46 41 40 43
47 47 47 48 48 49 50 51 52 51 51 49 48 46 45 43 41 38 36 33 31 29 27 27 26 25 24 24 23 21 20 20 19 19 20 21 22 25 26 27 29 30 30 31 31 31 33 35 35 35 34 33 32 32 33 34 37 40 42 42 43 45 46 47 46 44 45 46 44 44 44 42 39 39 39 37 37 41 40 38 42 47 45 47 50
47 46 47 48 48 48 49 50 50 50 49 48 47 45 44 42 40 38 35 32 30 28 27 27 26 24 24 23 22 21 20 19 18 19 20 21 23 25 27 28 29 30 31 31 32 33 34 35 35 34 32 30 28 29 31 33 35 39 41 42 43 44 45 47 46 45 46 48 47 46 47 47 43 41 43 41 40 46 46 43 47 52 51 52 55
46 46 47 47 46 46 47 49 49 49 48 47 46 45 44 42 40 38 35 32 30 29 28 26 25 24 23 22 21 20 19 18 17 19 20 22 24 26 27 28 29 30 31 32 33 34 34 34 33 31 29 28 28 29 30 32 32 35 37 38 39 41 43 45 46 45 46 48 51 51 53 55 50 48 51 49 45 49 50 46 49 54 51 48 53
45 46 45 45 45 45 47 48 49 48 47 47 46 45 44 42 40 37 34 32 30 29 27 26 24 23 22 21 20 19 18 17 17 19 20 22 24 26 27 28 29 29 30 32 34 34 33 32 31 30 30 30 31 31 31 32 33 35 36 37 37 38 40 43 45 47 47 48 51 51 53 58 56 54 55 53 49 52 53 50 50 50 46 42 46
43 43 43 43 44 45 47 48 48 48 48 47 47 46 44 42 40 37 34 32 30 29 27 25 24 22 21 20 19 18 17 17 17 19 20 21 23 25 26 27 28 29 30 32 33 32 31 31 30 31 32 33 34 35 36 36 36 36 37 38 38 38 38 40 42 45 46 48 51 51 51 55 57 56 57 55 52 50 48 47 45 43 43 42 43
41 41 42 43 44 45 47 48 49 49 48 48 47 46 44 42 40 37 34 32 30 28 26 24 23 21 20 19 18 17 16 16 17 19 20 21 22 23 25 26 27 30 31 31 30 29 29 31 32 33 35 35 35 37 39 40 40 39 39 40 42 42 42 42 42 43 44 47 51 54 53 53 54 53 50 48 47 45 43 44 45 45 48 49 48
40 40 41 42 43 45 47 47 48 48 48 47 47 46 44 42 39 36 34 32 29 27 25 23 22 20 19 18 18 16 15 15 17 19 20 21 22 22 24 26 28 30 31 30 28 28 29 31 34 37 37 37 37 37 37 38 39 42 44 46 48 49 47 45 44 44 46 47 52 56 55 54 54 53 50 47 48 50 51 53 54 54 56 57 56
38 39 40 41 43 45 46 47 48 48 47 47 47 46 45 43 40 37 34 32 29 27 25 23 21 20 19 19 17 15 14 15 17 19 20 21 21 22 25 27 28 30 30 28 27 28 29 32 35 38 37 37 38 36 34 35 38 43 47 48 49 49 48 47 45 46 47 48 51 55 55 53 53 53 52 51 52 55 56 57 58 58 58 60 60
37 37 39 41 42 44 46 47 47 47 47 47 47 47 45 43 40 37 34 32 29 26 24 21 20 20 19 19 17 15 14 16 18 19 20 20 21 23 26 27 28 29 28 27 27 28 30 32 35 37 37 37 36 33 32 35 40 44 46 47 48 49 50 49 47 45 46 48 50 52 52 52 51 52 52 51 52 54 54 55 57 56 56 59 59
35 36 38 40 42 44 46 47 47 47 47 47 48 47 45 42 39 36 33 30 27 24 22 21 20 20 19 18 17 15 14 15 17 19 19 19 22 24 25 26 27 27 26 26 27 29 31 33 33 33 35 36 35 33 33 35 38 42 45 48 51 52 52 52 50 48 47 47 49 50 51 51 51 51 51 50 51 52 52 55 56 53 52 55 55
34 36 38 40 42 44 45 46 46 46 47 48 49 48 46 42 39 36 32 28 25 23 22 21 20 20 19 18 18 16 14 14 17 18 18 19 21 23 24 25 25 25 25 27 28 30 32 33 31 30 32 34 34 33 33 34 38 43 47 50 52 53 52 50 50 49 47 46 47 48 49 50 50 49 49 48 48 47 49 54 55 53 54 55 53
33 35 37 39 41 43 45 45 46 46 47 48 49 48 45 41 38 34 30 27 25 23 22 21 21 20 19 18 18 16 14 14 16 17 17 19 20 20 21 22 23 24 25 27 29 31 33 33 31 30 32 32 32 32 34 35 39 43 45 46 49 51 50 48 48 49 49 48 49 49 49 49 49 49 48 47 46 45 47 50 50 49 52 54 51
32 35 37 39 41 43 44 45 46 46 47 48 49 47 44 41 37 33 29 26 24 22 21 21 21 20 19 18 17 15 14 14 15 16 17 17 17 17 18 19 21 23 25 28 30 32 33 34 33 31 31 31 31 34 35 35 36 38 40 43 45 47 47 47 47 47 48 49 50 50 51 51 50 50 50 48 47 47 49 52 51 50 51 53 51
33 35 37 39 41 42 43 44 44 45 46 49 49 47 44 41 37 33 29 26 24 23 22 21 21 20 18 18 16 15 14 14 15 16 16 14 13 14 15 17 20 22 25 27 30 32 34 34 34 33 32 31 33 34 34 33 33 35 37 38 40 42 43 46 48 46 46 48 49 48 48 48 48 48 48 48 47 46 48 51 52 52 53 53 53
33 35 38 40 41 42 43 43 44 45 48 50 50 48 44 40 36 33 30 27 25 24 23 22 21 20 19 17 15 14 14 15 16 15 13 12 11 11 13 15 17 20 24 27 29 31 33 33 34 34 33 34 34 33 32 32 32 32 33 34 36 39 40 42 43 42 41 42 42 42 42 43 44 44 45 46 47 46 47 49 50 51 53 54 54
34 37 38 40 41 42 42 43 45 48 50 51 50 47 44 40 36 33 30 28 26 24 23 23 21 20 18 16 14 13 14 15 15 13 11 10 9 9 10 13 15 18 22 26 29 31 31 31 32 34 34 35 35 34 33 32 30 30 31 34 36 37 37 37 37 37 38 38 37 37 37 38 39 41 42 44 46 46 47 49 49 50 52 54 54
35 38 39 40 41 42 43 44 47 50 52 51 49 46 43 39 35 32 29 27 26 24 24 23 21 19 17 14 13 13 13 13 13 12 10 8 8 8 9 12 15 17 20 24 27 28 27 29 32 33 34 34 34 34 34 32 31 30 30 33 34 35 35 35 36 38 38 37 36 37 36 35 35 36 38 40 42 44 46 47 49 50 51 53 54
37 39 41 42 42 43 44 46 49 52 52 52 49 46 42 38 34 31 29 27 26 25 24 22 20 18 15 13 13 13 13 12 11 10 9 7 7 9 11 13 15 17 21 23 24 23 25 29 32 32 32 33 33 34 34 33 31 30 30 31 34 35 36 36 37 38 38 37 37 37 37 36 34 34 35 37 39 43 45 47 49 49 49 50 52
38 40 42 43 43 45 47 49 53 54 53 50 47 44 41 38 34 31 29 27 26 25 24 22 20 17 15 13 13 13 12 11 9 8 7 8 9 10 13 15 16 19 21 22 21 23 26 29 30 30 30 30 30 31 32 33 32 32 32 33 35 36 37 37 37 37 38 37 37 37 36 36 35 35 36 37 38 41 43 45 47 48 47 47 48
40 42 44 44 45 47 50 53 56 57 54 50 46 42 39 36 34 31 29 28 27 26 24 21 19 16 14 14 14 13 10 9 8 5 6 9 11 13 15 16 18 20 21 20 21 24 27 27 27 28 28 28 29 29 30 32 33 35 35 35 36 37 37 37 36 36 36 37 36 36 36 36 36 37 37 37 37 38 37 38 42 44 45 45 45
43 44 45 46 47 50 53 57 59 58 55 50 46 41 37 34 32 30 28 27 27 25 23 20 18 15 14 14 13 11 8 7 4 4 7 8 10 13 14 15 18 19 18 17 20 24 24 24 26 27 28 29 31 31 32 33 34 36 37 37 37 38 39 39 38 37 36 36 36 37 37 37 37 38 38 39 40 39 36 35 37 40 42 43 44
44 46 46 47 49 52 56 59 59 58 54 48 42 38 35 32 30 29 27 25 23 21 20 18 16 15 14 14 12 9 7 3 1 3 5 7 8 10 12 14 16 17 15 16 20 22 23 24 26 28 30 32 33 34 35 37 37 38 39 39 40 40 41 42 41 39 38 37 37 38 38 37 38 39 39 40 42 41 40 38 37 37 38 39 42
46 48 49 50 52 55 59 60 59 56 53 47 42 37 32 30 28 27 26 25 22 20 19 17 16 15 14 12 9 6 4 1 1 1 5 6 7 10 12 12 13 14 15 17 19 20 22 25 27 29 30 32 34 36 37 39 41 42 42 42 42 42 43 43 43 42 40 39 38 38 37 37 40 41 41 41 42 41 41 40 38 38 37 37 39
49 51 52 53 55 58 62 62 59 55 51 46 43 39 35 31 28 25 24 23 22 20 19 17 16 15 13 10 7 4 3 2 2 4 5 6 8 9 10 11 12 14 16 17 17 19 23 26 27 29 30 31 34 36 38 40 41 43 44 44 44 44 44 45 45 43 43 41 40 40 39 39 41 43 42 41 40 40 41 41 39 39 38 37 36
51 52 54 56 58 60 63 63 60 55 50 45 42 41 38 36 33 29 26 23 21 21 19 17 15 13 11 9 7 5 4 4 4 4 5 6 7 8 9 10 12 13 15 16 17 20 23 25 27 29 30 32 34 36 38 40 41 43 44 45 45 45 46 46 46 45 44 43 43 43 43 43 43 43 42 40 38 39 41 41 40 39 38 37 35
53 53 55 58 60 62 63 62 60 57 53 48 45 42 40 39 36 33 29 25 22 21 19 17 14 12 10 9 7 6 5 5 4 5 6 6 6 6 7 9 12 13 14 15 17 20 23 25 28 30 31 32 34 36 37 39 41 42 43 44 45 46 47 47 47 45 44 45 45 45 45 45 44 43 43 41 39 39 40 40 40 39 39 37 35
53 54 56 59 63 65 66 63 60 57 53 49 47 43 40 38 36 35 33 30 26 23 21 19 16 13 11 10 9 8 7 6 5 6 6 5 5 5 7 8 9 10 12 15 18 21 24 26 28 30 31 32 34 36 37 39 40 42 43 44 45 46 47 47 46 44 45 47 49 48 47 47 46 44 43 42 40 39 39 40 41 39 38 37 36
54 55 57 59 63 67 67 64 60 56 52 49 47 44 41 38 36 34 33 31 29 26 23 20 18 15 13 12 11 10 9 7 7 7 6 4 3 5 6 6 7 9 12 16 18 20 24 26 28 30 32 32 33 35 36 38 40 41 43 44 45 46 47 48 46 45 47 50 51 50 49 48 47 45 43 42 41 41 40 40 40 39 37 36 36
55 56 58 61 64 66 65 61 57 54 51 48 45 43 41 39 36 33 31 29 27 24 22 21 19 17 15 14 13 12 10 8 8 7 5 3 3 5 5 6 9 12 15 17 19 21 22 24 27 30 31 32 32 34 35 38 39 40 42 44 45 46 47 48 46 46 49 53 53 51 50 50 48 46 44 42 42 41 41 41 40 39 37 36 35
56 58 60 62 64 64 62 58 54 51 48 46 44 42 40 38 36 33 31 28 26 23 22 22 20 18 17 16 15 13 11 9 8 6 2 2 3 5 6 9 12 14 16 18 20 21 23 24 26 29 31 32 32 33 35 37 38 40 42 43 45 46 47 47 46 46 50 55 56 53 52 51 49 46 45 44 43 43 43 43 42 40 37 34 34
57 58 59 61 63 62 59 55 51 48 45 43 42 40 38 37 35 33 31 29 26 24 23 22 20 18 18 17 15 12 10 9 7 4 2 1 2 4 7 10 12 14 17 19 21 22 24 25 26 28 30 31 32 34 35 36 38 40 42 44 45 47 47 47 47 48 53 58 58 56 54 52 50 48 45 44 45 45 44 44 42 40 38 35 33
56 56 58 61 62 61 58 54 50 47 44 42 39 38 37 36 34 33 31 29 27 25 23 22 21 20 18 17 14 12 10 9 7 5 3 1 1 5 8 10 12 14 17 19 21 23 24 25 27 28 29 30 32 33 34 36 38 40 42 44 46 48 49 48 48 51 57 60 60 58 56 54 52 50 46 43 44 44 44 43 42 39 37 37 35
56 58 60 61 61 59 56 52 49 46 43 41 39 37 36 34 33 31 30 28 26 25 23 22 21 20 19 17 15 13 11 10 9 7 4 2 4 6 8 10 13 15 17 19 21 23 24 26 27 28 29 30 31 32 33 35 37 39 42 44 46 48 50 49 49 53 59 62 62 60 58 56 54 51 47 45 44 43 43 44 43 38 34 33 33
57 58 60 60 59 56 52 49 46 44 43 41 38 36 34 32 30 29 28 27 26 25 24 23 22 20 19 17 16 14 13 11 9 6 4 3 5 6 9 11 14 16 18 19 20 22 24 26 27 28 30 30 30 30 32 34 36 38 42 45 46 49 50 50 50 55 61 63 63 62 59 57 55 51 49 47 46 43 44 45 43 38 33 31 30
57 58 59 58 56 53 48 46 44 43 41 38 36 34 32 30 29 28 28 27 27 26 25 24 23 21 20 19 17 16 13 11 9 6 4 4 5 7 9 11 14 16 18 19 21 22 24 25 27 28 30 31 31 31 31 34 36 38 41 44 46 49 51 51 51 56 62 64 64 63 60 58 55 53 51 49 46 45 46 46 43 38 34 32 30
57 59 59 58 54 49 46 44 42 40 38 36 34 33 32 31 30 29 29 28 27 26 25 24 23 22 22 20 18 16 14 11 9 6 4 4 4 6 8 10 13 15 16 18 20 22 23 25 27 28 29 31 32 31 31 32 34 37 40 43 46 48 51 52 53 57 63 65 65 63 61 59 56 54 53 51 48 47 47 47 44 40 36 33 30
58 59 58 55 50 46 44 43 42 40 38 36 35 34 33 32 31 30 29 28 27 25 24 23 23 22 21 20 18 16 14 11 9 6 4 3 4 6 8 10 11 13 15 17 19 21 23 24 26 27 29 30 32 32 31 30 32 35 38 42 45 48 50 52 54 57 61 65 64 62 61 60 58 56 54 52 51 50 49 48 46 41 36 33 30
58 58 56 52 48 46 44 42 41 39 38 37 36 35 33 32 31 30 28 27 26 25 24 23 22 21 20 19 17 14 12 10 8 6 4 3 3 5 7 9 11 13 14 16 18 20 22 24 26 28 29 30 31 33 33 31 30 32 36 40 44 47 50 52 53 55 59 63 63 61 60 59 59 57 56 54 52 51 50 49 46 41 36 32 30
57 56 53 51 48 46 44 42 40 39 38 37 36 35 33 31 30 28 27 26 25 24 23 23 22 20 19 17 15 13 11 9 8 6 4 2 3 5 6 9 11 13 15 17 18 20 22 24 26 27 29 30 32 33 34 34 32 32 34 38 42 45 49 51 51 53 58 62 61 58 58 59 59 58 56 55 53 52 50 49 46 42 37 33 30
54 53 51 49 47 45 43 42 40 39 37 36 34 33 32 31 29 27 26 24 23 23 22 21 20 18 17 15 13 12 10 9 7 5 3 2 2 4 6 8 11 13 15 16 18 20 21 23 25 26 28 30 32 33 35 35 34 32 34 38 42 45 48 49 49 51 57 60 59 57 57 58 58 58 57 55 54 53 51 50 48 43 38 35 31
52 50 48 46 45 44 43 41 39 37 36 34 33 31 31 29 28 26 25 24 23 22 21 20 18 17 15 14 13 12 10 8 7 4 2 1 3 5 7 9 11 13 14 16 18 19 21 23 24 26 28 29 31 33 35 35 35 33 34 37 41 44 46 47 47 50 55 59 58 56 57 57 57 57 56 55 54 53 51 50 49 45 40 36 31
48 46 45 43 43 42 41 40 38 36 35 33 32 31 29 28 26 25 24 23 22 21 20 18 17 16 15 14 13 11 10 8 6 3 1 1 3 5 7 9 11 13 14 16 18 19 21 23 24 26 28 29 31 33 34 35 35 34 34 36 40 43 45 46 46 49 54 58 58 57 57 57 57 56 55 54 53 52 51 50 49 47 43 38 32
43 42 41 41 40 39 37 36 35 34 32 32 31 30 28 27 26 25 24 23 22 20 19 18 17 15 15 14 12 11 9 7 5 3 1 2 4 6 7 9 11 13 15 17 18 20 21 23 24 26 28 29 31 32 34 35 35 34 34 36 40 42 44 45 46 48 52 57 58 57 57 57 57 57 56 55 54 53 52 51 49 48 45 40 34
40 38 37 37 37 36 35 33 32 31 30 29 29 28 27 26 25 24 23 22 20 19 18 17 16 15 14 13 11 10 8 6 4 2 1 3 5 6 8 10 11 13 15 17 19 20 21 23 25 26 28 30 31 32 33 34 34 33 33 36 39 41 43 44 45 46 50 55 58 57 57 57 57 57 57 56 55 55 54 52 50 48 46 42 36
Wind_Direction
232 233 234 234 236 238 238 238 238 237 236 235 235 234 233 232 232 232 233 234 235 236 238 241 245 250 255 259 263 267 272 279 284 288 291 293 293 294 296 298 300 303 304 305 305 305 305 305 306 306 303 298 296 292 287 283 279 276 273 271 272 270 268 267 265 270 278 281 282 285 287 288 288 289 292 291 288 287 285 283 281 280 280 279 280
234 235 235 235 237 238 237 237 237 236 236 235 234 233 232 231 230 231 232 232 234 235 237 241 245 250 255 259 263 268 274 279 284 287 289 290 292 293 296 298 301 303 303 304 305 305 306 306 307 306 302 298 297 294 291 289 285 283 280 275 273 270 265 265 267 271 275 275 275 280 284 285 285 288 291 290 287 288 287 284 283 283 283 284 286
236 236 235 236 237 236 235 236 236 236 235 234 233 232 230 230 229 230 231 231 232 234 236 241 246 251 255 259 264 269 275 279 283 285 287 288 290 293 297 300 301 302 303 304 306 307 306 307 308 306 303 301 300 299 297 296 295 292 288 283 277 274 273 271 270 273 274 273 273 278 284 285 283 285 290 291 290 289 288 286 286 286 287 289 289
235 235 236 236 236 235 234 234 234 235 235 234 232 231 229 228 228 229 229 230 231 232 236 241 246 252 255 260 265 270 274 278 282 283 285 288 291 294 298 299 300 301 302 304 306 307 307 307 308 308 306 305 304 304 303 303 303 297 292 289 284 282 284 279 271 273 276 277 277 278 282 284 284 286 288 289 288 287 287 288 289 289 291 292 292
235 236 235 234 234 234 233 233 233 234 234 233 231 229 228 227 227 228 228 228 230 232 237 242 247 253 257 261 267 270 274 278 280 282 286 289 292 296 298 298 300 301 302 305 306 308 308 309 310 309 307 307 307 308 309 307 306 300 294 292 290 290 291 282 271 272 274 275 278 278 280 282 284 285 285 287 289 290 288 288 290 292 293 296 296
235 234 233 233 233 233 232 232 233 234 234 232 230 227 227 226 226 226 226 227 230 233 238 244 250 254 258 262 266 269 273 277 279 282 286 290 293 296 297 298 300 301 302 305 307 309 309 309 310 309 309 309 310 312 313 311 307 303 300 299 297 295 293 286 280 278 274 272 274 278 281 281 282 283 284 285 287 288 289 290 292 294 295 298 300
234 233 232 232 233 233 233 233 233 233 232 231 228 225 225 224 224 224 225 226 230 235 241 246 251 255 258 262 265 269 273 275 278 282 286 290 293 295 297 298 300 301 303 306 308 309 310 311 311 311 311 312 314 316 317 314 309 305 304 304 301 297 291 288 285 282 278 275 273 276 281 280 279 281 283 285 285 284 286 289 292 295 296 297 298
234 234 232 233 234 234 234 232 231 231 230 228 225 224 223 222 222 222 223 226 230 236 243 248 252 255 258 262 265 269 272 273 277 283 287 292 295 295 297 299 300 303 304 306 309 312 314 314 313 312 314 316 318 316 313 311 307 303 302 300 298 296 292 289 286 281 280 279 275 274 279 278 276 279 281 283 282 282 284 285 288 291 293 294 295
237 235 235 235 236 234 232 230 229 228 227 225 223 222 221 220 219 220 221 225 231 237 242 247 251 255 258 263 266 268 271 273 279 285 289 293 295 295 297 299 302 305 306 309 312 315 316 316 314 315 316 313 307 299 295 295 293 292 294 293 293 293 292 290 286 280 278 278 275 274 276 275 273 275 278 278 278 282 285 284 286 288 291 294 296
240 238 237 236 235 232 231 229 227 226 224 222 221 220 219 218 218 218 221 225 231 236 242 246 250 255 258 262 266 268 271 276 282 287 291 294 296 297 300 302 304 306 309 311 314 316 316 314 313 314 312 304 298 294 289 286 285 285 287 287 287 287 288 287 286 283 280 278 276 275 275 275 273 273 278 278 277 282 285 283 284 288 291 293 294
241 238 237 236 234 232 230 227 225 224 222 220 219 219 218 217 217 218 220 225 230 235 240 245 248 253 257 261 265 268 272 278 284 289 293 297 299 301 302 304 305 307 310 312 314 315 314 312 311 310 309 307 307 307 301 293 288 285 285 285 284 282 282 283 284 285 283 280 279 276 274 275 274 274 278 279 277 279 284 282 282 284 285 286 289
240 238 237 236 235 233 230 226 224 223 221 219 218 217 217 216 216 217 221 225 230 234 238 243 246 251 255 259 264 268 272 280 287 292 295 298 301 301 300 301 303 307 310 310 310 312 312 313 311 307 308 311 310 310 310 307 301 292 287 286 284 281 280 279 278 281 282 282 282 279 276 278 279 276 277 280 278 280 282 280 276 278 279 280 281
241 240 238 237 235 232 229 226 224 222 220 219 217 216 215 214 214 217 221 224 229 233 236 240 245 249 254 257 261 266 272 282 290 293 297 299 300 297 297 299 302 306 307 307 307 311 315 316 314 313 314 315 312 310 310 308 306 302 297 294 291 288 286 281 275 274 276 278 279 279 279 280 280 278 278 279 278 278 279 276 274 275 277 278 278
241 240 238 236 234 231 228 226 224 222 220 218 216 214 213 213 213 216 220 224 228 232 235 240 244 249 253 256 260 267 276 286 292 295 297 298 296 293 293 297 301 303 304 306 310 316 319 319 319 320 319 315 315 316 311 306 305 305 303 300 298 296 294 289 284 280 277 275 275 277 280 279 277 276 276 276 275 274 275 276 276 277 278 279 280
241 240 238 235 232 230 228 226 224 222 219 216 214 212 211 211 212 215 219 223 227 230 234 238 243 249 253 257 262 270 280 288 293 295 295 295 292 290 291 294 298 300 303 309 316 320 322 321 320 320 318 316 319 319 312 306 305 304 302 301 300 299 297 293 291 288 284 280 277 278 280 280 278 276 275 274 273 273 275 276 276 278 280 280 280
240 239 237 234 232 230 228 226 223 221 218 214 212 211 210 210 212 215 218 221 225 228 232 237 245 249 253 259 265 272 280 287 291 291 292 292 288 287 290 294 298 302 308 315 320 324 325 324 322 319 317 317 318 314 308 305 304 303 302 302 302 300 297 294 291 288 284 282 279 278 278 277 276 276 275 274 272 272 273 275 275 276 276 276 277
239 239 237 235 233 231 228 226 223 219 216 213 212 210 209 210 212 215 218 221 223 227 233 239 244 248 253 259 265 270 275 282 287 288 289 288 286 287 292 296 300 306 314 320 324 326 326 323 321 317 312 311 311 309 308 308 306 305 304 304 303 301 298 297 295 290 284 280 277 276 276 275 274 273 274 273 271 270 270 268 269 270 271 271 272
239 238 237 235 233 231 228 226 222 218 215 212 211 209 209 210 212 215 218 221 223 227 233 239 243 248 253 258 263 268 273 278 282 285 285 284 284 288 294 298 305 312 319 324 327 326 324 320 315 309 307 310 311 311 312 312 310 309 308 307 306 303 302 302 300 296 291 285 281 279 276 276 275 275 275 272 271 270 268 266 266 268 267 267 269
240 238 236 234 232 230 227 224 221 217 213 211 209 208 208 209 212 214 217 219 223 228 233 240 244 248 251 256 262 268 272 276 279 280 280 280 283 290 297 303 311 320 325 327 325 321 320 317 313 311 314 318 318 315 315 314 312 310 309 308 305 303 303 304 303 301 298 293 290 287 283 280 278 278 277 275 272 269 266 268 270 268 266 266 269
242 237 235 232 230 228 225 222 218 215 212 209 207 207 208 209 210 213 215 218 222 229 235 239 242 245 249 254 261 267 271 275 275 274 274 278 284 293 300 308 319 326 327 324 319 317 316 315 316 323 329 328 321 317 316 315 313 310 308 305 302 303 306 307 305 302 299 295 292 290 288 285 281 278 277 277 275 270 266 267 269 268 267 268 269
240 236 233 230 228 226 223 220 217 213 210 208 206 205 207 209 210 212 214 217 222 228 233 236 239 244 249 253 258 266 271 271 270 270 273 279 287 296 306 317 325 325 319 316 314 314 315 318 325 334 335 327 320 319 318 317 314 310 307 304 303 306 308 307 304 301 298 295 292 291 290 287 281 278 276 276 276 273 270 268 268 267 267 267 266
239 235 230 227 225 223 220 217 214 211 208 207 206 205 206 207 209 211 213 217 222 225 230 234 237 240 245 250 255 262 266 266 267 270 275 283 291 304 316 320 319 315 312 313 314 315 319 327 334 337 332 324 322 323 321 319 317 314 312 311 311 311 309 306 304 304 303 300 296 295 295 290 283 280 278 276 276 276 275 274 272 269 267 266 265
238 233 229 225 223 221 217 213 210 208 206 205 205 206 206 206 208 210 214 217 219 222 226 230 233 236 240 245 249 253 257 260 264 269 275 285 299 316 320 314 312 312 312 313 317 322 328 333 332 330 329 327 327 328 326 325 325 323 320 317 315 315 313 312 313 314 313 309 303 298 296 294 289 285 283 281 279 279 279 279 277 274 271 268 267
237 231 227 223 220 218 214 211 208 206 205 205 205 206 207 207 207 210 214 215 217 221 224 226 229 231 235 239 243 246 249 252 258 268 278 293 315 329 321 313 315 317 315 317 324 329 330 328 327 328 329 329 330 331 331 333 335 333 328 323 322 324 325 324 324 323 319 315 311 304 299 296 293 290 288 286 285 284 282 280 278 276 272 270 269
238 231 225 221 218 214 210 207 205 204 204 206 206 206 206 207 208 210 212 214 216 219 221 223 225 228 229 231 234 240 245 248 257 271 286 312 337 338 324 320 323 324 323 327 330 329 326 326 328 330 331 332 334 334 335 339 340 338 337 335 333 333 333 331 329 325 318 314 310 307 303 300 297 292 289 287 285 284 283 281 279 277 274 272 270
238 231 224 219 215 211 207 203 201 202 203 206 208 208 209 210 211 211 212 214 215 216 217 219 222 224 224 224 228 233 239 248 261 277 306 337 344 333 325 328 329 328 330 333 332 328 328 329 330 331 333 336 338 338 340 342 343 343 344 343 341 339 337 333 329 323 318 315 312 308 306 305 303 299 295 291 287 283 281 281 281 278 275 272 270
238 231 223 217 211 208 205 202 200 200 201 203 205 207 209 211 212 212 212 213 213 213 214 217 218 219 219 220 225 229 233 247 265 295 342 347 335 327 329 332 329 330 337 339 331 328 331 331 330 333 336 338 340 343 345 346 347 348 349 347 344 342 340 336 329 323 319 318 314 310 308 308 308 307 306 304 299 291 285 283 283 279 274 270 268
239 231 223 216 210 206 204 202 200 199 200 201 202 204 206 208 210 213 214 215 215 213 214 215 214 214 215 219 224 226 228 243 275 347 355 338 324 324 327 327 325 331 340 336 325 327 332 333 334 339 342 343 346 348 350 351 351 351 350 348 345 343 342 340 336 331 327 322 318 316 315 315 314 313 311 309 306 300 294 288 285 283 277 270 266
235 228 221 215 209 205 202 202 201 200 198 198 199 202 207 208 210 210 210 211 212 213 214 213 210 210 215 218 220 220 222 231 12 13 330 311 311 316 318 321 325 331 334 329 326 330 336 339 344 348 349 350 352 352 353 354 353 352 351 349 345 344 344 343 341 337 333 328 324 322 321 319 318 316 312 309 306 302 299 292 285 283 282 274 266
230 224 219 214 209 205 202 201 201 200 199 197 196 197 201 203 205 206 206 206 205 206 208 208 206 208 213 215 215 215 209 162 69 289 284 291 299 305 312 321 326 326 327 330 332 334 341 348 354 354 353 355 356 355 355 355 353 350 350 348 346 345 344 343 342 340 337 333 329 326 323 319 318 316 313 309 306 304 301 296 287 283 283 279 271
227 222 217 213 209 205 202 199 198 198 198 199 199 197 195 193 194 198 202 203 202 200 202 205 205 205 205 205 207 206 180 163 218 258 280 292 297 307 317 323 324 326 329 333 337 342 350 356 358 356 356 357 357 357 357 356 353 350 348 347 347 346 345 344 344 342 339 335 331 328 324 319 317 316 312 309 306 304 303 300 293 287 283 280 277
229 224 218 213 208 205 202 199 196 195 195 196 197 197 195 192 190 189 192 196 197 198 199 202 204 204 199 193 193 191 185 193 225 257 278 287 297 315 325 323 324 329 331 333 340 352 359 1 0 359 357 357 357 358 358 356 353 349 346 345 345 345 346 347 346 344 341 336 331 328 325 321 318 316 312 308 304 303 304 303 298 291 285 281 278
231 225 218 211 206 203 201 198 196 195 194 193 192 193 194 195 192 189 187 188 191 194 196 198 199 200 198 195 193 197 200 206 229 255 268 280 300 323 331 328 329 332 334 339 349 359 4 5 4 1 357 355 356 356 356 355 353 349 347 344 343 344 346 347 346 343 340 336 331 327 325 323 321 318 314 309 305 303 303 303 301 295 289 283 277
230 225 219 212 206 202 199 198 198 196 194 193 192 191 192 194 194 192 189 186 186 189 193 193 193 194 196 198 201 207 211 216 230 247 262 279 308 337 342 336 332 334 344 355 2 7 8 8 6 2 357 355 355 354 354 355 354 351 348 346 344 344 346 345 344 342 339 336 332 328 326 324 323 320 316 312 308 303 300 302 304 300 291 285 280
225 222 218 212 207 202 198 197 197 195 193 192 191 190 190 191 193 194 194 193 192 191 190 189 189 191 194 197 201 207 211 216 227 239 256 283 328 349 340 333 340 352 1 8 12 14 11 8 5 2 358 355 354 354 354 355 354 353 350 347 344 344 344 343 343 342 339 336 332 330 327 326 324 322 318 313 309 305 302 302 303 300 293 286 281
220 217 213 209 205 201 197 195 194 194 192 191 189 189 188 188 190 192 193 195 195 192 187 184 186 190 193 196 201 204 204 210 221 230 245 290 345 353 347 355 8 11 12 14 16 16 13 7 3 2 359 357 356 356 356 356 355 354 353 349 346 345 344 343 343 342 338 336 334 332 329 327 326 324 321 316 312 308 305 304 302 299 294 287 281
219 217 212 207 202 199 196 193 192 192 192 189 187 186 185 185 187 188 189 191 191 187 183 184 186 189 193 197 200 199 197 204 215 220 236 321 343 354 5 15 18 16 16 16 14 12 11 6 2 1 360 358 357 356 356 356 356 356 355 352 350 347 345 344 344 341 338 337 336 334 331 329 328 326 323 319 315 312 310 310 308 304 298 291 282
216 214 210 203 198 195 192 190 188 189 189 187 186 184 183 183 184 185 187 188 187 183 183 185 187 190 193 195 195 193 192 198 204 205 219 292 331 11 20 23 21 18 17 15 12 10 9 6 2 1 0 358 356 355 355 355 356 357 356 354 352 351 348 347 346 343 340 339 337 336 333 331 329 329 325 320 318 317 315 314 312 307 301 296 289
208 206 203 199 195 192 190 188 186 185 185 184 183 183 183 182 182 183 185 186 185 184 184 184 186 191 193 192 191 189 188 191 195 196 199 200 48 37 30 26 24 21 19 16 12 9 7 5 3 2 359 357 355 354 354 354 356 358 357 355 352 351 350 349 347 344 341 340 338 337 335 333 331 330 328 323 320 319 317 316 314 308 301 296 292
201 198 196 195 192 189 188 187 184 182 181 181 181 182 183 184 183 183 184 185 184 185 184 184 186 189 189 188 188 186 183 183 184 182 172 120 56 39 31 26 24 22 19 16 12 8 6 5 4 2 360 357 355 353 353 354 357 359 359 357 353 350 350 350 348 344 342 341 339 338 336 335 334 332 330 327 324 321 318 319 319 314 306 299 294
194 191 189 190 188 186 184 183 181 180 181 181 181 182 183 184 183 183 184 184 184 184 184 184 185 185 184 184 184 181 178 174 168 160 140 94 57 39 30 25 22 20 17 14 11 8 5 4 3 2 1 0 356 352 352 355 358 1 1 358 354 351 352 352 348 345 343 342 341 340 338 337 336 334 331 330 328 325 323 325 326 321 314 307 299
188 185 184 184 184 182 180 179 179 179 180 180 180 181 182 182 183 184 184 184 185 186 185 184 183 181 180 181 179 175 172 166 156 146 127 90 57 39 31 25 20 19 15 11 9 7 4 3 2 1 2 2 358 354 353 356 0 3 2 358 354 352 353 351 348 345 344 343 342 341 340 338 337 335 334 333 332 329 329 332 332 328 321 313 306
184 183 182 181 180 179 179 179 179 179 178 179 179 180 181 183 184 185 186 186 187 187 186 183 180 178 177 177 174 171 167 160 153 145 124 91 56 38 31 24 20 18 14 9 6 3 1 1 1 1 1 2 0 357 355 357 2 5 4 359 356 355 354 351 347 345 345 343 343 343 342 340 339 337 337 337 336 333 334 337 337 332 326 318 311
182 181 180 178 177 177 177 178 178 177 177 178 179 180 182 184 184 185 186 187 186 185 184 181 178 176 175 174 171 167 162 157 152 146 128 97 58 36 27 21 18 16 11 6 3 360 358 358 359 358 359 1 1 359 357 358 2 7 6 2 359 356 354 351 348 346 345 344 344 344 343 342 341 340 339 340 339 338 339 341 340 336 330 323 316
180 178 176 174 174 175 176 176 176 176 176 178 180 180 182 183 184 185 186 186 185 183 181 179 177 176 174 172 169 165 161 157 155 150 137 100 55 32 22 17 14 11 6 3 360 356 355 355 355 356 356 357 359 1 359 358 1 7 9 6 2 357 354 351 349 347 346 346 346 346 345 344 343 343 342 342 342 342 342 343 343 341 336 331 324
177 176 174 172 172 173 173 173 175 176 177 179 180 179 179 181 183 184 184 184 184 182 180 179 178 176 174 171 167 165 164 163 160 155 142 104 49 26 19 15 11 6 1 359 356 354 353 353 353 353 354 354 357 359 359 358 360 5 10 11 8 0 355 352 350 348 348 349 349 348 347 346 346 345 345 345 345 345 345 346 347 346 343 339 333
176 175 172 171 170 170 171 173 175 176 177 178 179 178 179 180 181 183 183 182 182 182 181 179 178 176 173 171 170 170 171 170 167 162 145 100 41 21 14 11 6 2 359 356 354 353 352 352 352 352 353 353 355 357 358 358 359 3 9 13 10 1 355 354 352 349 349 351 352 351 351 349 348 348 348 348 348 348 348 350 351 351 349 346 342
175 173 170 170 170 170 170 172 173 175 176 177 177 179 180 179 180 182 182 181 182 182 181 180 178 176 175 175 176 176 176 175 173 168 150 69 21 14 10 4 1 359 356 354 353 353 352 352 352 353 353 353 354 355 356 356 359 2 8 12 10 2 356 355 353 350 350 354 355 355 354 353 351 351 350 350 350 350 350 352 355 355 354 352 348
174 171 169 169 169 169 169 170 172 174 175 175 176 178 179 179 180 181 181 181 182 181 180 180 179 178 179 180 179 179 179 179 178 177 168 13 5 5 3 359 357 355 354 353 353 353 352 352 353 354 355 354 354 355 355 356 357 1 7 12 10 2 357 356 354 351 352 356 358 358 357 356 355 354 353 353 352 352 352 355 359 360 359 358 354
170 169 168 166 166 166 168 170 171 173 174 175 176 177 178 179 181 181 181 182 182 180 180 181 180 180 182 182 180 180 182 183 184 191 226 344 353 356 355 353 353 353 351 351 352 351 352 352 353 354 355 355 354 354 355 355 356 360 7 10 6 359 355 356 355 352 354 358 1 1 360 359 359 358 358 356 355 355 356 358 1 3 4 4 0
165 164 164 163 163 165 167 170 171 172 174 175 176 178 178 180 181 180 180 181 181 180 180 181 181 182 184 183 181 183 187 189 195 212 282 329 341 347 348 348 349 350 348 348 349 350 350 352 353 354 355 355 353 353 355 355 354 357 5 9 4 356 353 354 354 352 355 0 3 3 3 3 2 1 1 360 359 359 359 360 3 6 8 8 6